Theta_e
309 308 308 307 307 303 300 298 298 297 297 297 297 297 296 294 293 293 292 291 291 292
308 307 306 304 303 301 300 300 297 296 296 297 296 296 295 294 293 293 292 292 292 292
306 306 305 302 300 298 297 297 296 296 296 296 295 294 293 291 291 289 288 289 287 287
304 302 301 300 298 297 297 297 297 297 295 294 293 292 289 288 287 286 285 286 285 284
302 300 299 298 297 296 295 295 294 294 293 292 291 288 287 286 286 284 283 284 283 283
298 298 296 294 294 294 293 292 291 291 291 290 289 286 285 285 284 283 283 283 282 282
296 294 292 292 291 292 291 290 290 290 289 289 286 285 285 284 282 282 282 283 283 283
292 291 291 290 290 290 289 289 289 288 287 287 285 284 282 281 281 281 281 282 283 284
291 290 289 288 288 287 286 286 286 285 286 284 285 285 285 283 280 281 280 279 280 281
290 288 287 287 286 285 283 283 283 283 284 282 283 284 284 284 280 279 279 278 279 279
288 286 285 284 284 283 282 282 282 282 282 281 282 283 283 282 279 278 278 278 278 278
286 285 284 283 281 281 281 281 280 281 281 280 280 283 283 280 278 278 277 278 279 279
285 284 282 281 281 281 280 281 281 281 281 283 279 283 282 281 278 276 277 277 278 280
284 282 282 281 281 279 279 279 278 278 278 279 280 279 282 281 277 277 277 276 276 277
Wind_Speed
4 4 4 4 7 6 5 4 4 4 4 4 3 3 3 2 3 5 4 6 5 4
8 11 9 10 9 7 6 5 5 5 5 4 4 5 6 4 5 5 5 7 8 6
11 11 10 10 10 8 6 6 6 5 5 6 6 6 6 5 10 10 7 7 10 8
11 12 10 10 7 7 7 7 8 7 6 6 6 7 8 7 9 9 7 7 8 8
12 13 12 9 8 9 8 7 6 6 7 6 7 7 7 8 7 7 7 6 8 9
12 12 12 9 7 7 7 7 7 7 6 7 7 6 7 6 5 6 6 7 9 9
11 10 8 7 7 7 6 7 6 6 6 6 5 7 6 5 5 5 6 7 8 9
9 8 7 7 7 6 7 6 6 6 6 6 6 6 5 6 6 6 6 7 7 9
8 8 7 7 6 7 7 7 6 6 5 6 6 10 11 9 5 7 7 7 7 9
7 7 7 6 7 7 6 6 6 6 5 6 6 12 14 14 6 6 8 7 8 9
7 6 6 7 6 6 4 5 4 6 7 7 8 13 15 14 6 6 8 9 10 10
6 6 6 6 5 4 5 4 5 6 7 6 4 13 15 10 7 9 9 10 9 11
6 6 5 5 4 3 3 7 7 8 6 9 4 14 16 15 7 9 9 9 10 15
6 5 5 4 3 5 7 7 6 6 5 6 7 8 16 19 9 8 8 9 9 8
Wind_Direction
137 128 138 102 87 89 112 113 98 88 66 41 8 329 304 283 271 257 271 273 255 248
88 81 78 75 75 78 86 96 72 56 39 359 324 326 349 353 335 339 336 340 342 339
95 87 82 76 74 67 57 57 46 21 3 2 17 22 21 8 31 42 21 21 14 4
88 82 74 75 70 66 54 33 29 29 28 24 22 21 50 42 35 35 13 9 3 344
78 78 73 62 53 52 52 40 37 30 29 22 23 58 52 46 33 24 356 348 338 330
69 68 71 61 54 49 46 36 26 29 25 27 58 48 42 46 24 354 343 334 325 316
75 72 67 58 51 50 41 33 26 27 28 26 83 57 44 27 358 340 342 319 315 310
71 65 59 46 52 42 37 30 24 22 16 12 80 57 39 9 341 331 326 323 332 346
62 59 51 53 47 40 30 17 17 7 12 37 68 65 30 3 332 337 342 338 345 348
57 58 49 47 39 31 18 12 5 9 19 82 76 47 28 15 360 343 341 353 352 342
57 51 54 45 34 20 8 2 2 12 30 99 65 45 31 13 352 4 355 343 340 332
64 53 57 44 19 8 18 11 16 35 37 95 81 48 30 26 11 355 345 339 332 338
59 70 62 48 21 4 27 42 36 21 33 54 27 22 25 20 1 344 340 337 334 334
53 67 58 40 19 48 56 49 26 10 18 25 16 4 16 6 353 341 341 333 331 329